Tracking 27380 objects as of 5-Jun-2023
HD Live streaming from Space Station
objects crossing your sky now

FLOCK 4V 16

Track FLOCK 4V 16 now!
10-day predictions
FLOCK 4V 16 is classified as:


NORAD ID: 46527
Int'l Code: 2020-061BD
Perigee: 450.9 km
Apogee: 454.1 km
Inclination: 97.4 °
Period: 93.5 minutes
Semi major axis: 6823 km
RCS: Unknown
Launch date: September 3, 2020
Source: United States (US)
Launch site: FRENCH GUIANA (FRGUI)
Your satellite tracking list
Your tracking list is empty




NASA's NSSDC Master Catalog

Two Line Element Set (TLE):
1 46527U 20061BD  23155.68651368  .00018425  00000-0  45949-3 0  9996
2 46527  97.3533 228.0803 0002336 322.7442  37.3641 15.40255041148652
Source of the keplerian elements: AFSPC